{"data":{"norad_id":59252,"intl_designator":"2024-049X","name":"STARLINK-31393","alt_names":[],"object_type":"PAYLOAD","status":"ACTIVE","operator":null,"country":"US","launch_date":"2024-03-16","launch_site_code":"AFETR","launch_vehicle":null,"mission":null,"orbit_class":"UNKNOWN","rcs_meters":null,"size_class":null,"mass_kg":null,"dimensions":null,"purposes":["comms"],"wikipedia_slug":null,"has_3d_model":false,"image_url":null,"decayed_at":null,"tle_current":{"epoch":"2026-09-20T22:18:51.743520Z","epoch_age_seconds":121695,"freshness":"FRESH","line1":"1 59252U 24049X   26263.92976555 -.00000551  00000+0 -10515-4 0  9997","line2":"2 59252  43.0027 106.3619 0001142 274.1827  85.8894 15.27572059142435","mean_motion":15.27572059,"eccentricity":0.0001142,"inclination_deg":43.0027,"raan_deg":106.3619,"arg_perigee_deg":274.1827,"mean_anomaly_deg":85.8894,"bstar":-1.0515e-5,"rev_number":14243,"period_min":94.267238754201,"perigee_km":482.28932418577,"apogee_km":483.85642452107,"semimajor_km":6861.2098743534,"source":"CELESTRAK","updated_at":"2026-09-21T09:00:34.079041Z"}}}